Location: Gu�tanj
(46.5431°N, 14.9692°E)
Time: 17:46:28
(UTC+00:00)

COSMOS 2455 - Pass Details

Date: 03 March 2021
Orbit: 902 x 908 km, 67.1° (Epoch: 15 April)

Event Time Altitude Azimuth Distance (km) Brightness Sun altitude
Rises 17:06:30 0° 322° (NW) 3,545 6.4 -3.8°
Reaches altitude 10° 17:09:08 10° 315° (NW) 2,599 5.9 -4.3°
Maximum altitude 17:14:43 41° 248° (WSW) 1,287 4.4 -5.2°
Drops below altitude 10° 17:20:17 10° 179° (S) 2,581 5.3 -6.2°
Sets 17:22:54 0° 173° (S) 3,518 5.9 -6.6°
